Location: Berville
(49.1893°N, 2.0748°E)
Time: 19:18:29
(UTC+00:00)

FENGYUN 1C DEB - Pass Details

Date: 07 March 2024
Orbit: 768 x 960 km, 99.0° (Epoch: 13 April)

Event Time Altitude Azimuth Distance (km) Brightness Sun altitude
Exits shadow 21:04:43 69° 287° (WNW) 1,007 ? -31.9°
Drops below altitude 10° 21:10:13 10° 341° (NNW) 2,626 ? -32.6°
Sets 21:12:37 0° 344° (NNW) 3,548 ? -33.0°
